Location: Béaulencourt
(50.0796°N, 2.8795°E)
Time: 04:22:00
(UTC+00:00)

ARIANE 6 FM1 Upper Stage - Pass Details

Date: 18 March 2026
Orbit: 525 x 604 km, 62.0° (Epoch: 17 April)

Event Time Altitude Azimuth Distance (km) Brightness Sun altitude
Exits shadow 04:22:19 24° 289° (WNW) 1,152 3.8 -15.6°
Maximum altitude 04:23:51 31° 329° (NNW) 949 3.7 -15.4°
Drops below altitude 10° 04:27:28 10° 34° (NE) 1,784 6.0 -14.8°
Sets 04:29:50 0° 45° (NE) 2,671 7.3 -14.5°
